LOT6ED EPWA-EDDF

Flight info

Callsign LOT6ED
Flight time N/A
Altitude 34000
Route LOLSI DCT DIBLO DCT INDIG DCT KORUP DCT SULED DCT ROBEL/N0355F240 T178 KERAX KERAX5D
Aircraft B738/M-SDE2E3FGHIRWXY/LB1

Departure

Time 2026-04-30 14:21
Airport Warsaw Chopin Airport (EPWA)

Arrival

Time N/A
Airport Frankfurt Main Airport (EDDF)
Time Latitude Longitude Altitude Speed Heading
2026-04-30 13:29 52.17046 20.96809 338 ft 0 kts 276°
2026-04-30 14:12 52.17046 20.96808 338 ft 0 kts 275°
2026-04-30 14:13 52.17046 20.96807 338 ft 0 kts 274°
2026-04-30 14:13 52.17045 20.96755 338 ft 7 kts 257°
2026-04-30 14:13 52.17007 20.96728 335 ft 6 kts 168°
2026-04-30 14:14 52.16967 20.96761 335 ft 7 kts 151°
2026-04-30 14:14 52.16917 20.96809 336 ft 10 kts 150°
2026-04-30 14:14 52.16845 20.96874 334 ft 14 kts 151°
2026-04-30 14:14 52.16752 20.96957 338 ft 17 kts 152°
2026-04-30 14:15 52.16659 20.97068 336 ft 17 kts 118°
2026-04-30 14:15 52.16626 20.97187 334 ft 0 kts 116°
2026-04-30 14:15 52.16605 20.97259 337 ft 15 kts 115°
2026-04-30 14:15 52.16550 20.97457 336 ft 21 kts 114°
2026-04-30 14:16 52.16492 20.97663 335 ft 20 kts 115°
2026-04-30 14:16 52.16436 20.97859 336 ft 19 kts 115°
2026-04-30 14:16 52.16385 20.98045 337 ft 17 kts 114°
2026-04-30 14:16 52.16336 20.98219 335 ft 16 kts 116°
2026-04-30 14:17 52.16289 20.98383 337 ft 15 kts 115°
2026-04-30 14:17 52.16215 20.98457 338 ft 6 kts 203°
2026-04-30 14:17 52.16214 20.98456 338 ft 0 kts 202°
2026-04-30 14:18 52.16212 20.98455 338 ft 1 kts 202°
2026-04-30 14:19 52.16143 20.98395 335 ft 14 kts 221°
2026-04-30 14:19 52.16133 20.98288 335 ft 0 kts 293°
2026-04-30 14:20 52.16140 20.98277 336 ft 1 kts 324°
2026-04-30 14:20 52.16179 20.98130 335 ft 53 kts 295°
2026-04-30 14:20 52.16964 20.95301 779 ft 192 kts 295°
2026-04-30 14:21 52.17553 20.93186 1593 ft 217 kts 297°
2026-04-30 14:21 52.18195 20.90814 2437 ft 244 kts 291°
2026-04-30 14:21 52.18111 20.85640 3765 ft 210 kts 266°
2026-04-30 14:22 52.17963 20.83301 4365 ft 205 kts 275°
2026-04-30 14:22 52.18588 20.78821 5659 ft 207 kts 287°
2026-04-30 14:22 52.18919 20.76501 6315 ft 212 kts 287°
2026-04-30 14:23 52.19594 20.71695 7620 ft 224 kts 286°
2026-04-30 14:23 52.18964 20.66530 8929 ft 245 kts 254°
2026-04-30 14:24 52.17755 20.61205 10284 ft 255 kts 255°
2026-04-30 14:24 52.17141 20.58455 10906 ft 260 kts 255°
2026-04-30 14:25 52.15882 20.52798 12181 ft 270 kts 255°
2026-04-30 14:25 52.15350 20.46845 13506 ft 267 kts 281°
2026-04-30 14:26 52.15635 20.40650 14602 ft 289 kts 281°
2026-04-30 14:26 52.15793 20.37232 14816 ft 313 kts 281°
2026-04-30 14:26 52.16075 20.30149 16505 ft 312 kts 281°
2026-04-30 14:27 52.16224 20.26523 16918 ft 328 kts 281°
2026-04-30 14:27 52.16376 20.22762 17516 ft 336 kts 281°
2026-04-30 14:27 52.16524 20.18983 18250 ft 340 kts 281°
2026-04-30 14:28 52.16819 20.11184 19586 ft 349 kts 281°
2026-04-30 14:28 52.16967 20.07216 20211 ft 353 kts 281°
2026-04-30 14:28 52.17117 20.03183 20827 ft 358 kts 282°
2026-04-30 14:28 52.17268 19.99112 21453 ft 362 kts 282°
2026-04-30 14:29 52.17569 19.90878 22674 ft 370 kts 282°
2026-04-30 14:29 52.17572 19.83728 23652 ft 388 kts 271°
2026-04-30 14:30 52.16151 19.68796 24793 ft 422 kts 269°
2026-04-30 14:31 52.15255 19.59191 25123 ft 446 kts 269°
2026-04-30 14:31 52.14344 19.49183 26026 ft 452 kts 269°
2026-04-30 14:31 52.13884 19.44106 26498 ft 454 kts 269°
2026-04-30 14:32 52.12956 19.33919 27635 ft 454 kts 270°
2026-04-30 14:32 52.12485 19.28843 28172 ft 455 kts 270°
2026-04-30 14:32 52.12006 19.23720 28521 ft 460 kts 270°
2026-04-30 14:33 52.11519 19.18516 28788 ft 467 kts 269°
2026-04-30 14:33 52.10518 19.07950 29487 ft 476 kts 269°
2026-04-30 14:33 52.10013 19.02704 29989 ft 476 kts 269°
2026-04-30 14:34 52.09506 18.97463 30509 ft 475 kts 269°
2026-04-30 14:34 52.08990 18.92150 30850 ft 478 kts 269°
2026-04-30 14:34 52.07946 18.81321 30990 ft 496 kts 269°
2026-04-30 14:35 52.07034 18.71970 31098 ft 510 kts 269°
2026-04-30 14:35 52.06282 18.64361 31177 ft 520 kts 268°
2026-04-30 14:36 52.05107 18.52608 31315 ft 532 kts 268°
2026-04-30 14:36 52.04504 18.46641 31440 ft 535 kts 268°
2026-04-30 14:36 52.03898 18.40679 31649 ft 536 kts 268°
2026-04-30 14:36 52.03289 18.34718 31938 ft 535 kts 268°
2026-04-30 14:37 52.02678 18.28766 32230 ft 534 kts 268°
2026-04-30 14:37 52.02067 18.22818 32489 ft 534 kts 268°
2026-04-30 14:37 52.01455 18.16874 32723 ft 534 kts 268°
2026-04-30 14:37 52.00841 18.10933 32979 ft 534 kts 267°
2026-04-30 14:38 52.00224 18.05002 33243 ft 533 kts 267°
2026-04-30 14:38 51.99601 17.99056 33503 ft 533 kts 267°
2026-04-30 14:38 51.98956 17.93128 33745 ft 533 kts 266°
2026-04-30 14:38 51.98296 17.87281 33990 ft 533 kts 266°
2026-04-30 14:39 51.97617 17.81375 34251 ft 533 kts 266°
2026-04-30 14:39 51.96932 17.75450 34420 ft 534 kts 266°
2026-04-30 14:39 51.96247 17.69534 34398 ft 535 kts 266°
2026-04-30 14:40 51.94419 17.53784 34403 ft 532 kts 266°
2026-04-30 14:40 51.93056 17.42109 34405 ft 530 kts 266°
2026-04-30 14:41 51.91675 17.30366 34409 ft 530 kts 266°
2026-04-30 14:41 51.90284 17.18653 34400 ft 530 kts 265°
2026-04-30 14:42 51.88879 17.06932 34406 ft 530 kts 265°
2026-04-30 14:42 51.87470 16.95283 34409 ft 530 kts 265°
2026-04-30 14:43 51.86040 16.83568 34412 ft 530 kts 265°
2026-04-30 14:43 51.84598 16.71861 34406 ft 530 kts 265°
2026-04-30 14:44 51.83149 16.60192 34415 ft 530 kts 265°
2026-04-30 14:44 51.81687 16.48518 34408 ft 529 kts 264°
2026-04-30 14:45 51.80212 16.36845 34406 ft 529 kts 264°
2026-04-30 14:45 51.78736 16.25258 34412 ft 529 kts 264°
2026-04-30 14:46 51.77242 16.13631 34408 ft 528 kts 264°
2026-04-30 14:46 51.75737 16.02014 34413 ft 528 kts 264°
2026-04-30 14:47 51.74223 15.90426 34413 ft 527 kts 264°
2026-04-30 14:47 51.72710 15.78936 34418 ft 526 kts 264°
2026-04-30 14:48 51.71177 15.67383 34422 ft 526 kts 264°
2026-04-30 14:48 51.69635 15.55861 34412 ft 526 kts 263°
2026-04-30 14:49 51.68082 15.44349 34418 ft 525 kts 263°
2026-04-30 14:49 51.66520 15.32855 34420 ft 524 kts 263°
2026-04-30 14:50 51.64168 15.15724 34423 ft 524 kts 263°
2026-04-30 14:51 51.61785 14.98567 34422 ft 523 kts 263°
2026-04-30 14:52 51.59385 14.81462 34434 ft 521 kts 262°
2026-04-30 14:52 51.56898 14.64479 34430 ft 521 kts 261°
2026-04-30 14:53 51.54192 14.47561 34435 ft 521 kts 260°
2026-04-30 14:54 51.50593 14.25094 34437 ft 520 kts 260°
2026-04-30 14:55 51.47880 14.08252 34438 ft 519 kts 260°
2026-04-30 14:56 51.44251 13.85992 34446 ft 518 kts 259°
2026-04-30 14:57 51.41503 13.69332 34445 ft 517 kts 259°
2026-04-30 14:58 51.37791 13.47086 34443 ft 516 kts 259°
2026-04-30 14:58 51.34985 13.30463 34444 ft 515 kts 259°
2026-04-30 15:00 51.30283 13.02954 34457 ft 513 kts 258°
2026-04-30 15:01 51.26474 12.80977 34467 ft 512 kts 258°
2026-04-30 15:01 51.23596 12.64551 34459 ft 511 kts 258°
2026-04-30 15:02 51.21668 12.53629 34455 ft 511 kts 258°
2026-04-30 15:03 51.16824 12.26467 34458 ft 510 kts 257°
2026-04-30 15:04 51.12809 11.99059 34464 ft 507 kts 262°
2026-04-30 15:06 51.08975 11.71762 34455 ft 506 kts 261°
2026-04-30 15:07 51.05819 11.49960 34450 ft 505 kts 260°
2026-04-30 15:08 51.02637 11.28229 34441 ft 504 kts 260°
2026-04-30 15:09 50.98618 11.01224 34432 ft 503 kts 259°
2026-04-30 15:09 50.96986 10.90437 34276 ft 505 kts 259°
2026-04-30 15:10 50.95345 10.79589 32550 ft 504 kts 258°
2026-04-30 15:11 50.92007 10.57732 29353 ft 512 kts 258°
2026-04-30 15:11 50.89556 10.47259 27647 ft 515 kts 235°
2026-04-30 15:12 50.80992 10.37664 25360 ft 507 kts 198°
2026-04-30 15:13 50.74547 10.33869 23850 ft 477 kts 199°
2026-04-30 15:14 50.63943 10.23648 22422 ft 446 kts 232°
2026-04-30 15:14 50.59957 10.10676 21568 ft 437 kts 251°
2026-04-30 15:16 50.54918 9.88959 19786 ft 395 kts 250°
2026-04-30 15:17 50.51206 9.73527 17787 ft 363 kts 250°
2026-04-30 15:18 50.46918 9.55479 15253 ft 344 kts 252°
2026-04-30 15:19 50.44950 9.44775 13668 ft 338 kts 254°